Home   Weather   Redmond   Past weeks

Flag for USA Past Weather in Redmond, Washington, USA — Yesterday and Last 2 Weeks

57 °F


Feels Like: 57 °F
Forecast: 55 / 61 °F
Wind: No wind

Location: Seattle Boeing Field

Current Time: Oct 24, 2016 at 11:28:19 AM

Latest Report: Oct 24, 2016 at 10:53 AM

Visibility: 10 mi

Pressure: 29.58 "Hg

Humidity: 78%

Dew Point: 50 °F

Location of RedmondLocation

Past Weather in Redmond — Graph


Redmond Temperature Yesterday

Maximum temperature yesterday: 62 °F (at 12:53 PM)
Minimum temperature yesterday: 50 °F (at 5:53 AM)
Average temperature yesterday: 56 °F

High & Low Weather Summary for the Past Weeks

High66 °F (Oct 12, 2:53 PM)100% (Oct 10, 2:53 AM)30.33 "Hg (Oct 10, 2:53 AM)
Low40 °F (Oct 12, 7:53 AM)37% (Oct 12, 2:53 PM)29.10 "Hg (Oct 15, 4:53 PM)
Average54 °F83%29.83 "Hg
* Reported Oct 9 9:53 AM — Oct 24 9:53 AM, Redmond, Weather by CustomWeather, © 2016

Note: Actual official high and low records may vary slightly from our data, if they occured in-between our weather recording intervals... More about our weather records


Redmond Weather History for the Previous 24 Hours

Scroll right to see more
Time TempWeatherWind HumidityBarometerVisibility
9:53 AM
Mon, Oct 24
55 °FOvercast.5 mph80%29.56 "Hg10 mi
8:53 AM55 °FPartly sunny.5 mph83%29.57 "Hg10 mi
7:53 AM54 °FPartly sunny.No wind86%29.56 "Hg10 mi
6:53 AM54 °FPassing clouds.5 mph83%29.57 "Hg10 mi
5:53 AM54 °FPassing clouds.8 mph90%29.60 "Hg10 mi
4:53 AM54 °FOvercast.No wind90%29.63 "Hg10 mi
3:53 AM53 °FMostly cloudy.3 mph89%29.66 "Hg10 mi
2:53 AM54 °FPassing clouds.3 mph86%29.69 "Hg10 mi
1:53 AM54 °FClear.No wind86%29.67 "Hg10 mi
12:53 AM54 °FClear.3 mph86%29.68 "Hg10 mi
11:53 PM
Sun, Oct 23
55 °FClear.No wind87%29.72 "Hg10 mi
10:53 PM56 °FClear.No wind84%29.73 "Hg10 mi
9:53 PM56 °FClear.No wind84%29.75 "Hg10 mi
8:53 PM57 °FPartly cloudy.9 mph78%29.75 "Hg10 mi
7:53 PM58 °FPassing clouds.No wind72%29.77 "Hg10 mi
6:53 PM59 °FMostly cloudy.3 mph69%29.78 "Hg10 mi
5:53 PM60 °FOvercast.No wind67%29.79 "Hg10 mi
4:53 PM61 °FBroken clouds.9 mph62%29.81 "Hg10 mi
3:53 PM60 °FMore clouds than sun.12 mph67%29.83 "Hg10 mi
2:53 PM61 °FOvercast.12 mph62%29.85 "Hg10 mi
1:53 PM61 °FPartly sunny.No wind65%29.87 "Hg10 mi
12:53 PM62 °FBroken clouds.5 mph67%29.89 "Hg10 mi
11:53 AM60 °FPartly sunny.3 mph75%29.90 "Hg10 mi
Weather by CustomWeather, © 2016

See weather overviewHow to use our weather pages